User: anonymous   Login
Location: Unspecified
(0.0000°N, 0.0000°E)
Time: 08:02:59
(UTC+00:00)
Language:

PRATHAM - Orbit

View from above orbital plane
View from above orbital plane
View from above satellite
View from above satellite

Ground track
Ground track

The orbit data is extracted from the following two-line orbital elements,

1 41783U 16059A   18147.82339673 +.00000040 +00000-0 +17177-4 0  9997
2 41783 098.1189 209.7109 0034215 157.5319 202.7391 14.62922692088985
Epoch (UTC): 27 May 2018 19:45:41
Eccentricity: 0.0034215
inclination: 98.1189°
perigee height: 659 km
apogee height: 708 km
right ascension of ascending node: 209.7109°
argument of perigee: 157.5319°
revolutions per day: 14.62922692
mean anomaly at epoch: 202.7391°
orbit number at epoch: 8898

The dashed part of the orbit path shows where the satellite is in the earth's shadow,  

DLR